Regional Weather Roundup
Issued by NWS Kansas City/Pleasant Hill, MO

Home | Current Version | Previous Version | Text Only | Print | Product List | Glossary On
Versions: 1 2 3 4 5 6 7 8 9 10 11 12 13 14 15 16 17 18 19 20 21 22 23 24 25 26 27
000
ASUS43 KEAX 222210
RWREAX

WEATHER ROUNDUP FOR EASTERN KANSAS AND NORTHWEST MISSOURI
NATIONAL WEATHER SERVICE KANSAS CITY/PLEASANT HILL MO
500 PM CDT THU JUN 22 2017

KSZ040-057-103>105-MOZ028-029-037-043-222300-
...KANSAS CITY METROPOLITAN AREA...

CITY           SKY/WX    TMP DP  RH WIND       PRES   REMARKS
K.C. INTL      PTSUNNY   84  72  67 S13       29.67F
K.C. DOWNTOWN  MOSUNNY   87  72  60 S14G21    29.66F HX  93
LEES SUMMIT    PTSUNNY   85  72  65 S14       29.69F HX  91
OLATHE - IXD   PTSUNNY   86  72  62 S13       29.69F HX  92
OLATHE - OJC   PTSUNNY   83  73  72 S13G20    29.68F
LAWRENCE       MOSUNNY   87  72  60 S9G20     29.65F HX  93

$$

MOZ001>008-011>017-020>025-030>033-038>040-044>046-053-054-222300-
...NORTHERN AND CENTRAL MISSOURI...

CITY           SKY/WX    TMP DP  RH WIND       PRES   REMARKS
ST. JOSEPH     MOSUNNY   89  72  56 S16       29.64F HX  96
MOSBY          CLOUDY    86  68  54 S8        29.68S
WARRENSBURG    CLOUDY    84  72  65 SE10      29.69F
WHITEMAN AFB     N/A     84  77  79 S9        29.69F HX  94
CLINTON        CLOUDY    84  73  70 S10       29.70F HX  91
SEDALIA        CLOUDY    85  76  74 S12       29.72F HX  94
WARSAW         NOT AVBL
CHILLICOTHE      N/A     86  73  65 S9G17     29.69F HX  93
KIRKSVILLE     CLOUDY    83  72  69 S14       29.72F

$$

MOZ041-047>049-056>058-063>065-088>090-097-222300-
...EASTERN AND SOUTHERN MISSOURI...

CITY           SKY/WX    TMP DP  RH WIND       PRES   REMARKS
ST. LOUIS INTL PTSUNNY   85  71  63 S10       29.76F HX  90
SPIRIT OF STL  PTSUNNY   84  73  69 SE8       29.74S HX  90
COLUMBIA       CLOUDY    84  74  71 S9        29.73F HX  91
JEFFERSON CITY CLOUDY    85  71  63 SE7       29.71F HX  90
ROLLA          CLOUDY    82  73  74 S10       29.75S
OSAGE BEACH    CLOUDY    83  73  72 S6        29.73F
SPRINGFIELD    PTSUNNY   84  72  67 S13       29.71F
BRANSON        PTSUNNY   84  73  70 SE13      29.74F HX  91
JOPLIN         MOSUNNY   88  74  63 CALM      29.69F HX  96
WEST PLAINS    MOSUNNY   86  72  62 SE8       29.76F HX  92

$$

IAZ060-094-KSZ022-034>040-054-083-096-NEZ052-066-093-222300-
...KANSAS...SOUTHEAST NEBRASKA AND IOWA...

CITY           SKY/WX    TMP DP  RH WIND       PRES   REMARKS
TOPEKA         SUNNY     88  71  57 S8        29.64F HX  94
MANHATTAN      SUNNY     92  67  43 S17G24    29.59F HX  95
EMPORIA        SUNNY     86  70  58 S15       29.66F HX  90
CHANUTE        PTSUNNY   86  71  60 S13       29.68S HX  91
WICHITA        MOSUNNY   92  68  45 SE16      29.63F HX  96
OMAHA          CLOUDY    92  69  47 SW6       29.62S HX  97
LINCOLN        CLOUDY    91  66  43 W3        29.63S HX  93
FALLS CITY     SUNNY     88  68  51 S13G21    29.61F HX  91
LAMONI         MOSUNNY   86  71  60 S16G22    29.65F HX  91
DES MOINES     PTSUNNY   86  67  52 SW16      29.65S

$$





USA.gov is the U.S. government's official web portal to all federal, state and local government web resources and services.